STARLINK-2446, 47844

Orbit data source: Space-Track

STARLINK-2446, 47844 is a payload satellite owned by SpaceX/Seattle (US) in LEO that was launched on Thu, 11 Mar 2021 UTC via an FALCON 9 launch vehicle from the Air Force Eastern Test Range (AFETR). Payload-class satellites include a variety of spacecraft equipped with specific instruments for various scientific and technological missions. These include communications satellites like Starlink; space stations such as the ISS; scientific satellites like the Hubble; Earth observation satellites from companies like Planet Labs, Umbra, and HawkEye 360; GPS; miniature CubeSats for education and research; and military/defense satellites.

Loading next visibility...
Identifier
47844, 2021-018BK
Orbit
LEO
Country
Flag of USUS
Related business
Manufacturer
SpaceX/Seattle
Mission
Operational Commercial Communications
Bus & Motor
STARLINK, Unknown motor
Mass
260 kg wet, ~248 kg dry
Launch date (UTC)
2021-03-11 (5 years ago)
Launch vehicle
FALCON 9
Launch site
Air Force Eastern Test Range (AFETR)
Object type
Payload
Rocket body
Debris
Shape & HBR
Box + 1 Pan, 10.1 m
Radar Cross Section
13.562 m², Large (>1 m²)

Expand to show TLE details & history
Last TLE update: 12 hours ago

TLE from 12 hours ago
0 STARLINK-2446
1 47844U 21018BK  26119.95857654  .00002657  00000-0  99333-4 0  9998
2 47844  53.1612   7.4591 0001238  86.1550 273.9592 15.31029680284536
Epoch: 2026-04-29T23:00Z
TLE epoch observation values (Epoch: 2026-04-29T23:00:21.013Z)
Latitude
-0.00005°
Longitude
164.45944°
Altitude
473.581 km
Speed
7.63 km/s
True Right ascension
00h 29m 50s
True Declination
0° 00' 00"
Sunlit
Object was in daylight at epoch
Visualization orbit readout
Latitude
Unknown
Longitude
Unknown
Altitude
Unknown
Speed
Unknown
Apparent Right ascension
Unknown
Apparent Declination
Unknown
Sunlit
N/A
Visualization observer readout
Local Sidereal Time
18:58:26
Azimuth
Unknown
Elevation
Unknown
Doppler factor
Unknown
Orbital elements
Apogee altitude
473.843 km
Perigee altitude
472.147 km
Semi-major axis
6,851.132 km
Eccentricity
0.00012
Inclination
53.1612°
RAAN
7.4591°
Arg. of periapsis
86.155°
True anomaly
273.94505°
Mean anomaly
273.9592°
Eccentric anomaly
273.95212°
Mean motion
3.82736 °/min
Orbital period
94.06 mins
BSTAR
0.000099333
Loading maneuver chart data...
Computing Atmospheric mass density...
Loading historical data...
Loading historical data...
Loading historical data...
Loading historical data...
Loading historical data...
Loading historical data...
Loading historical data...

Documentation

Showing up to 5 results
|